Temp
2 2 2 2 2 2 1 2 2 2 2 3 3 4 4 4 4 4 2 4 5 3 3 7 7 6 6 6 5 5 4 4 3 4 4 3 1 3 4 4 4 5 6 6 7 7 7 -3 5 8 1 -3 -5 -3
2 2 2 2 2 2 1 0 1 2 2 3 4 4 4 4 3 2 0 2 4 2 -2 -3 -4 -3 -1 5 6 5 5 5 5 5 4 4 3 -0 6 6 3 6 5 4 6 6 -4 -7 -6 -8 -6 -4 -5 -4
2 2 2 2 2 2 2 1 1 2 3 4 4 3 3 3 2 3 0 0 1 1 -1 -2 -3 -4 -2 -3 -1 5 3 5 4 4 4 4 5 3 3 6 3 4 1 8 4 -2 -7 -9 -10 -10 -10 -9 -9 -8
1 1 2 2 2 2 2 2 1 0 0 1 2 1 1 1 0 0 -1 -0 1 1 -0 -4 -6 -6 -5 -3 -1 0 1 2 2 2 4 5 5 3 4 1 1 -8 -6 -4 -2 -9 -10 -12 -13 -13 -12 -12 -12 -11
0 1 1 2 2 2 2 2 2 2 1 1 1 1 1 0 1 1 -1 -2 -1 1 -1 -4 -5 -5 -6 -4 -3 -1 -0 1 2 3 4 4 4 4 1 -6 -13 -13 -15 -9 -7 -14 -14 -14 -15 -14 -14 -14 -13 -13
0 1 1 1 2 2 1 1 1 0 -0 -0 1 2 2 2 2 2 -1 -0 -2 -2 -1 -4 -5 -6 -6 -5 -5 -4 -2 -1 1 2 2 2 -3 -1 -2 -12 -15 -15 -15 -16 -16 -16 -15 -15 -15 -15 -15 -15 -14 -14
-0 -0 1 1 1 1 1 1 1 0 0 -0 -1 -1 -2 1 1 -5 -6 -5 -2 -1 -3 -3 -5 -6 -7 -5 -4 -4 -4 -2 -2 0 -1 -4 -10 -10 -12 -14 -16 -16 -16 -17 -17 -17 -14 -16 -16 -16 -16 -16 -16 -15
-1 -1 -0 0 0 1 0 0 0 0 -0 -0 -1 -0 -1 -1 -2 -4 -5 -2 -1 -6 -9 -9 -10 -8 -9 -7 -6 -6 -5 -4 -4 -4 -7 -8 -13 -14 -17 -16 -16 -17 -17 -17 -18 -18 -17 -16 -17 -17 -17 -17 -17 -17
-1 -1 -1 -1 -0 -0 -0 0 -0 -0 -0 -0 -0 0 1 -2 -7 -5 -4 -3 -4 -7 -13 -15 -15 -13 -12 -10 -10 -9 -8 -4 -8 -8 -10 -12 -15 -17 -17 -17 -17 -17 -18 -18 -18 -17 -18 -18 -18 -18 -18 -18 -18 -18
-1 -1 -2 -1 -1 -1 -0 -0 -0 -0 0 0 0 -4 -9 -5 -5 -4 -4 -11 -13 -15 -15 -18 -19 -15 -14 -15 -14 -13 -15 -11 -9 -10 -12 -15 -16 -16 -17 -18 -18 -18 -19 -19 -19 -18 -19 -19 -19 -19 -19 -19 -19 -19
-2 -2 -2 -2 -2 -1 0 1 0 -0 0 -1 -12 -11 -5 -4 -5 -15 -15 -14 -18 -17 -18 -19 -19 -17 -16 -16 -18 -18 -17 -16 -12 -12 -13 -15 -16 -17 -18 -18 -19 -19 -19 -19 -20 -20 -20 -20 -20 -20 -20 -20 -20 -20
-1 -2 -2 -2 -2 -2 -1 -0 0 -0 -4 -5 -6 -5 -5 -13 -15 -14 -22 -18 -17 -17 -19 -19 -19 -20 -20 -22 -20 -19 -19 -18 -15 -14 -16 -18 -17 -19 -22 -22 -22 -20 -20 -20 -20 -21 -20 -20 -20 -21 -21 -21 -21 -21
-1 -1 -2 -2 -2 -3 -3 -2 -1 -2 -3 -3 -10 -15 -14 -16 -13 -16 -17 -17 -18 -21 -23 -21 -19 -22 -19 -21 -23 -21 -18 -18 -18 -18 -19 -20 -20 -20 -21 -24 -23 -19 -19 -20 -21 -21 -22 -22 -22 -21 -22 -22 -22 -22
-1 -1 -3 -2 -2 -1 -1 -2 -2 -2 -2 -14 -15 -13 -17 -18 -21 -19 -19 -20 -21 -24 -24 -26 -23 -20 -25 -19 -25 -20 -19 -18 -18 -18 -20 -20 -20 -21 -24 -25 -25 -23 -22 -22 -22 -22 -22 -23 -23 -23 -22 -22 -22 -23
-2 -2 -2 -3 -3 -2 -2 -2 -2 -2 -8 -17 -16 -18 -19 -21 -24 -25 -27 -24 -25 -28 -26 -23 -23 -23 -25 -21 -24 -22 -20 -21 -19 -20 -20 -21 -23 -26 -27 -28 -29 -26 -24 -25 -23 -23 -24 -24 -24 -24 -23 -23 -23 -23
-2 -2 -3 -3 -2 -2 -1 -1 -3 -6 -14 -18 -18 -18 -19 -19 -20 -21 -26 -25 -27 -26 -26 -24 -24 -22 -23 -26 -21 -22 -24 -23 -22 -22 -20 -25 -26 -29 -29 -26 -24 -23 -23 -24 -24 -24 -24 -24 -24 -24 -23 -24 -23 -23
-2 -3 -4 -2 -2 -2 -2 -3 -7 -20 -20 -18 -20 -21 -23 -22 -23 -24 -25 -22 -21 -22 -22 -23 -21 -21 -24 -23 -22 -22 -24 -23 -21 -21 -25 -27 -28 -27 -24 -24 -24 -24 -24 -24 -24 -24 -24 -24 -23 -24 -26 -23 -23 -23
-4 -4 -3 -3 -2 -1 -5 -9 -17 -20 -21 -24 -18 -20 -22 -24 -21 -21 -22 -21 -20 -19 -19 -19 -20 -21 -22 -22 -22 -24 -25 -24 -24 -23 -23 -23 -23 -23 -24 -25 -24 -23 -24 -24 -24 -25 -25 -25 -24 -24 -23 -23 -23 -23
-5 -4 -3 -2 -2 -4 -15 -14 -15 -22 -24 -23 -21 -20 -19 -18 -18 -18 -18 -16 -16 -17 -19 -22 -23 -24 -22 -24 -24 -22 -23 -23 -23 -23 -23 -23 -23 -24 -24 -24 -24 -25 -24 -24 -24 -25 -25 -24 -24 -24 -23 -23 -23 -23
-3 -3 -4 -2 -2 -9 -16 -18 -14 -19 -21 -20 -21 -22 -23 -21 -22 -20 -18 -18 -20 -23 -22 -24 -23 -23 -24 -26 -27 -25 -24 -23 -25 -24 -24 -23 -24 -24 -25 -25 -25 -24 -25 -25 -25 -24 -25 -24 -24 -24 -23 -23 -21 -22
-2 -3 -2 -2 -6 -12 -22 -25 -21 -22 -24 -20 -25 -22 -22 -22 -23 -24 -24 -22 -23 -30 -26 -26 -27 -28 -22 -22 -23 -23 -24 -24 -25 -25 -24 -24 -23 -24 -25 -25 -25 -25 -25 -25 -25 -25 -25 -25 -25 -24 -24 -23 -23 -23
-3 -2 -3 -4 -12 -15 -19 -18 -19 -21 -21 -24 -23 -24 -26 -24 -25 -26 -26 -25 -30 -25 -25 -26 -28 -25 -24 -24 -23 -23 -23 -23 -24 -24 -24 -24 -25 -25 -25 -26 -26 -26 -26 -26 -25 -26 -26 -26 -25 -24 -23 -22 -21 -21
-3 -4 -8 -10 -14 -16 -17 -17 -18 -23 -19 -23 -26 -24 -25 -25 -24 -22 -25 -28 -25 -21 -20 -21 -22 -22 -23 -23 -23 -23 -24 -24 -25 -25 -25 -26 -26 -26 -26 -27 -27 -27 -27 -26 -26 -26 -26 -25 -24 -24 -23 -22 -22 -21
-4 -13 -18 -18 -16 -18 -21 -19 -22 -21 -22 -21 -25 -23 -23 -23 -23 -24 -25 -24 -23 -20 -21 -22 -23 -25 -24 -24 -24 -24 -24 -25 -25 -25 -26 -27 -27 -26 -27 -27 -27 -27 -27 -27 -26 -26 -26 -25 -24 -24 -24 -23 -22 -22
-13 -17 -18 -18 -22 -18 -20 -20 -21 -19 -22 -25 -24 -23 -21 -22 -25 -26 -23 -22 -26 -25 -24 -23 -24 -25 -27 -26 -25 -24 -25 -25 -25 -26 -26 -26 -26 -27 -27 -27 -27 -26 -26 -26 -26 -25 -25 -25 -25 -24 -24 -23 -22 -20
-18 -21 -18 -23 -20 -18 -21 -18 -20 -21 -23 -23 -23 -25 -28 -26 -26 -25 -23 -25 -25 -26 -24 -25 -26 -26 -25 -25 -25 -25 -25 -25 -26 -26 -25 -25 -26 -27 -28 -28 -28 -27 -25 -26 -26 -26 -26 -25 -24 -24 -24 -23 -21 -21
-16 -19 -20 -18 -20 -19 -18 -19 -19 -20 -23 -21 -23 -23 -25 -24 -25 -23 -24 -22 -22 -22 -23 -24 -25 -25 -26 -26 -26 -25 -25 -25 -26 -26 -25 -24 -24 -24 -25 -26 -27 -26 -25 -24 -25 -25 -25 -25 -24 -23 -23 -22 -22 -21
-21 -21 -18 -21 -21 -21 -21 -21 -22 -21 -21 -21 -20 -21 -21 -21 -20 -23 -22 -20 -21 -22 -23 -23 -24 -25 -25 -25 -25 -25 -25 -24 -24 -24 -23 -22 -23 -23 -23 -24 -25 -25 -23 -24 -24 -23 -24 -23 -23 -23 -22 -21 -21 -21
-19 -19 -20 -22 -23 -22 -23 -21 -20 -20 -20 -23 -21 -19 -18 -19 -20 -19 -19 -20 -21 -22 -23 -23 -23 -24 -24 -24 -24 -24 -25 -25 -27 -27 -27 -26 -24 -23 -23 -24 -23 -24 -24 -23 -24 -22 -22 -20 -20 -21 -22 -22 -22 -22
-19 -20 -20 -24 -21 -20 -23 -23 -23 -23 -20 -22 -21 -21 -20 -20 -19 -19 -19 -20 -21 -22 -23 -23 -24 -24 -25 -25 -25 -24 -24 -25 -26 -26 -27 -26 -25 -23 -22 -22 -23 -23 -23 -23 -23 -23 -23 -22 -22 -22 -23 -23 -23 -23
-20 -21 -21 -21 -21 -24 -24 -22 -22 -20 -20 -25 -23 -23 -21 -22 -19 -19 -19 -20 -20 -21 -22 -22 -22 -23 -24 -24 -25 -26 -26 -24 -25 -25 -25 -24 -22 -21 -21 -21 -22 -22 -23 -23 -23 -23 -24 -24 -24 -24 -25 -25 -25 -25
-19 -23 -21 -18 -20 -26 -24 -27 -26 -23 -24 -24 -23 -27 -25 -23 -23 -19 -18 -19 -19 -20 -21 -22 -22 -22 -22 -23 -23 -24 -25 -25 -25 -25 -24 -21 -20 -19 -20 -21 -21 -21 -22 -23 -23 -24 -24 -24 -25 -25 -26 -26 -26 -26
-24 -26 -26 -24 -22 -23 -25 -25 -23 -22 -24 -23 -22 -24 -25 -23 -20 -18 -17 -18 -19 -20 -20 -20 -20 -20 -21 -21 -22 -22 -23 -23 -24 -24 -23 -20 -19 -19 -20 -21 -21 -22 -22 -23 -23 -24 -24 -24 -25 -25 -26 -26 -26 -26
Height
707 700 692 685 677 670 661 653 651 648 645 644 644 643 642 643 645 651 653 656 663 674 683 683 689 699 708 714 724 729 741 741 748 753 754 762 772 759 757 755 762 759 767 767 766 769 764 779 758 750 776 782 786 781
709 702 695 687 680 672 661 653 649 643 640 640 642 641 641 641 646 645 651 658 659 668 692 692 698 701 704 703 710 718 715 723 727 739 743 743 749 765 732 740 747 746 741 760 753 748 785 792 794 799 792 785 791 790
711 704 698 691 684 677 669 661 650 642 639 638 640 641 643 644 645 647 651 657 661 672 691 697 707 708 707 709 710 709 717 713 717 715 727 732 732 737 744 725 741 735 743 726 749 776 793 802 805 803 803 802 803 803
713 707 701 695 688 682 675 668 661 652 644 643 641 643 646 649 651 650 655 661 661 667 687 713 711 714 713 709 707 707 707 709 711 716 718 718 720 721 725 732 739 787 775 771 769 799 803 811 814 813 810 810 809 807
715 710 704 698 693 687 682 676 671 665 661 657 655 655 656 657 656 654 658 664 660 667 687 710 715 720 716 712 708 705 706 708 708 712 710 709 711 715 727 758 811 817 823 800 788 821 818 820 820 817 814 815 814 812
717 712 707 701 696 692 687 683 679 676 672 669 666 663 662 661 659 659 666 672 672 674 685 711 726 726 719 718 714 711 711 711 709 708 711 714 730 727 740 804 828 828 827 827 828 825 822 821 822 822 820 820 817 815
718 714 709 705 700 696 693 690 688 685 683 681 678 674 669 666 663 681 700 691 680 680 691 713 727 732 730 726 724 722 720 719 718 714 722 734 755 757 786 814 831 830 830 830 829 822 820 824 826 826 825 822 821 819
719 716 712 708 704 701 697 695 693 690 688 686 683 682 681 679 681 688 693 685 684 688 705 734 749 744 747 742 737 735 732 727 730 733 748 757 779 798 827 835 834 833 830 830 830 829 829 828 827 825 824 823 821 821
720 716 713 710 706 703 701 698 696 694 691 689 687 684 683 685 696 704 703 699 696 707 747 771 791 782 764 760 755 749 744 738 750 757 771 778 813 834 842 841 840 839 838 836 833 832 832 829 828 826 826 825 824 821
720 717 714 711 708 705 702 699 698 696 694 692 690 692 709 709 709 706 706 713 725 743 761 796 793 790 783 778 774 770 772 770 767 776 783 805 832 840 843 843 843 843 842 839 834 833 833 830 829 827 826 826 826 824
720 718 715 713 710 707 703 700 697 696 696 696 703 715 714 712 711 725 751 759 775 790 795 801 802 803 792 795 797 793 798 794 788 789 794 820 835 844 847 846 844 843 842 840 839 838 836 834 830 827 824 825 824 823
720 718 716 714 712 709 706 704 701 698 702 705 707 714 717 728 743 759 806 791 799 810 807 810 809 809 804 795 803 803 811 806 810 796 815 840 843 848 848 847 846 844 842 840 838 835 834 832 829 827 825 822 821 819
719 718 717 716 713 711 709 708 706 706 707 708 713 732 744 764 774 797 819 812 820 819 818 814 812 809 797 801 816 819 820 822 808 825 842 850 849 847 847 846 844 844 843 839 835 832 830 828 827 825 822 819 816 814
718 718 718 717 716 714 712 710 709 709 709 727 747 768 788 807 820 817 819 822 818 820 820 822 820 814 821 814 832 829 822 817 827 839 855 852 849 847 847 847 847 845 840 836 833 830 827 823 820 818 817 815 812 808
718 719 719 719 717 716 715 713 712 710 720 752 761 806 814 817 822 822 822 819 819 818 819 819 819 821 831 824 836 834 835 851 848 854 854 851 851 851 850 847 843 839 834 831 829 826 823 820 817 814 812 810 808 804
718 720 722 721 719 718 717 717 716 721 743 768 792 808 812 814 823 821 827 826 817 817 817 818 830 834 843 852 840 854 866 871 864 858 852 853 852 849 846 841 838 835 832 829 826 822 819 816 812 808 804 802 799 796
720 722 724 723 722 721 719 721 728 755 779 796 818 816 822 825 833 831 827 821 814 816 828 831 837 844 846 855 854 853 869 863 854 851 850 847 846 841 837 834 832 829 827 824 821 818 815 811 808 805 801 796 792 788
724 726 726 725 725 724 728 736 754 783 813 825 820 827 826 828 829 828 824 818 816 817 822 832 834 845 857 865 864 865 864 857 853 849 845 841 838 835 832 829 826 824 821 818 816 813 810 806 803 799 795 791 787 783
728 727 727 726 726 728 744 761 768 812 830 827 827 826 827 830 830 828 825 821 819 820 825 840 856 869 863 867 867 859 856 854 850 844 840 836 834 831 827 823 820 817 814 812 811 808 805 801 797 794 790 786 782 777
732 731 731 728 728 737 766 783 785 804 829 830 829 835 837 837 835 834 832 831 831 837 850 864 868 866 867 865 861 858 854 851 849 843 836 832 829 824 821 818 815 811 809 807 805 802 800 796 792 790 786 781 775 771
737 738 737 733 740 755 783 800 807 816 826 832 837 837 842 840 844 846 846 842 848 871 871 868 867 862 859 856 855 852 850 847 845 842 835 827 822 821 818 815 812 809 806 803 801 798 797 794 790 785 780 774 769 764
745 746 747 750 760 775 794 803 810 815 824 836 839 842 855 855 857 856 852 858 874 867 865 864 862 858 855 852 849 848 845 841 838 835 831 826 822 819 816 813 810 807 804 801 799 796 793 789 785 778 773 767 761 757
750 751 758 764 778 795 815 808 815 825 830 844 847 855 862 861 857 852 866 870 866 861 861 860 858 855 853 849 847 844 842 838 835 831 828 825 821 818 815 811 809 806 802 799 796 793 789 784 779 774 769 764 759 754
758 770 787 799 804 823 818 826 827 832 838 845 859 862 861 859 855 864 875 870 864 861 859 858 855 852 848 845 843 840 838 835 832 828 825 822 818 814 812 808 805 803 800 796 793 789 785 780 775 771 766 762 756 751
784 811 812 826 828 828 842 843 845 840 858 865 865 864 859 858 872 879 873 866 865 861 858 856 854 852 851 846 842 838 836 833 829 825 820 818 815 811 808 805 801 798 795 793 790 786 782 778 773 769 764 760 753 747
830 839 837 850 847 841 856 850 856 859 865 865 865 865 868 874 883 882 871 867 863 859 857 855 854 850 847 845 842 837 832 830 826 822 816 813 811 809 806 804 800 794 792 790 787 783 778 774 770 765 760 755 751 746
843 852 847 843 846 848 849 852 852 857 871 868 868 867 872 883 886 870 862 859 859 857 855 853 851 849 846 841 838 835 832 828 826 820 813 809 806 804 803 800 796 792 788 785 783 780 776 772 766 761 757 753 749 746
853 855 854 857 855 855 862 866 869 872 868 863 862 871 871 871 867 861 858 857 856 854 852 849 847 845 842 839 836 832 827 824 820 814 809 806 803 800 798 796 792 790 786 783 779 776 773 768 762 757 755 751 748 745
854 853 855 865 865 864 870 869 867 865 864 867 868 863 861 859 857 856 856 856 854 852 849 846 843 841 839 837 833 831 828 824 821 817 813 809 802 798 795 792 788 785 781 778 775 772 768 762 760 757 754 751 749 745
859 854 860 870 869 869 872 869 868 864 863 863 863 861 860 857 856 856 855 854 852 850 848 845 842 839 836 833 830 827 825 824 822 821 817 810 805 797 793 789 786 783 780 776 773 769 766 763 759 756 754 751 749 746
856 857 863 867 870 871 868 866 864 864 863 863 862 863 861 858 855 854 853 852 850 848 845 843 840 838 835 832 830 827 822 820 818 815 812 806 799 794 792 789 786 782 779 776 773 770 767 764 761 758 756 753 751 748
860 869 868 865 869 868 866 868 868 867 866 866 864 864 861 861 861 853 852 851 849 846 844 841 838 835 833 830 828 826 824 820 816 811 807 801 796 792 791 788 786 783 779 776 774 771 768 766 763 760 758 755 752 749
869 871 873 874 871 871 871 871 870 869 870 868 865 864 864 863 859 852 850 849 848 845 842 839 836 833 830 828 825 823 821 817 813 811 807 803 798 794 790 787 785 783 780 777 774 772 769 767 764 762 759 756 753 751
Wind_Speed
29 29 29 30 27 27 33 15 11 12 11 8 14 12 13 13 14 20 8 21 19 4 3 8 16 9 8 11 10 9 3 1 2 5 4 4 4 5 3 7 9 9 9 7 8 9 17 6 1 15 2 4 3 6
29 28 28 29 29 31 28 28 24 11 9 7 10 10 8 17 12 21 7 10 18 6 3 14 18 12 3 5 8 12 7 6 6 5 5 3 3 2 10 9 4 8 8 7 10 6 5 7 6 7 9 6 6 6
28 28 28 28 29 30 31 30 40 19 6 3 3 9 16 16 16 9 17 15 9 3 4 4 4 9 14 7 6 7 2 7 6 5 3 3 4 6 7 13 3 5 4 9 5 3 5 6 8 12 11 11 10 10
26 27 28 27 28 28 28 28 29 33 36 28 24 25 26 23 20 22 15 6 6 4 4 3 10 6 16 17 4 5 1 4 4 3 3 4 4 4 5 3 4 3 7 3 4 5 7 9 9 7 9 10 11 10
23 25 23 26 24 24 24 25 26 27 28 29 28 27 28 30 33 36 36 29 27 3 3 3 5 17 20 20 18 12 4 2 2 3 3 4 2 3 3 4 5 6 5 3 1 5 3 4 6 9 9 10 9 8
21 23 20 24 22 21 20 23 24 26 26 24 18 16 13 9 5 6 4 19 25 13 4 3 3 7 19 17 17 11 7 3 1 1 2 2 3 3 4 4 4 8 6 7 4 7 2 4 8 12 7 9 9 7
19 19 18 22 20 20 15 18 21 22 23 25 28 34 33 24 30 10 4 15 17 4 3 4 2 5 16 6 3 4 6 3 3 2 3 3 6 6 4 3 4 7 4 5 8 7 2 10 4 10 12 13 13 9
16 16 18 16 17 17 16 13 15 16 16 16 17 18 18 16 14 13 29 25 8 14 5 3 3 4 15 5 5 4 4 2 5 3 3 4 4 4 6 5 6 7 5 9 10 6 2 5 7 9 12 13 8 8
14 15 14 16 16 12 10 9 9 9 12 12 9 12 6 14 6 7 13 18 36 14 4 3 3 3 9 5 3 4 3 3 3 4 3 4 4 7 3 5 6 7 5 6 8 4 7 6 7 7 8 9 8 9
11 14 14 12 14 15 10 6 5 6 8 8 6 8 4 6 11 8 8 5 7 5 5 2 1 3 4 4 4 4 3 2 3 3 3 5 3 2 2 2 3 4 4 5 4 7 10 10 9 10 8 9 9 11
9 10 13 12 12 16 14 11 4 3 4 5 3 2 3 7 8 4 4 5 4 5 3 1 2 1 4 3 2 2 1 2 3 3 3 3 3 2 4 4 4 6 7 7 4 6 8 7 7 9 9 12 12 13
7 8 11 11 11 12 14 17 17 17 10 8 14 7 5 7 4 8 2 4 7 1 4 2 2 2 3 3 3 4 2 3 1 2 4 3 2 2 2 2 3 8 8 9 12 10 13 13 14 12 13 15 15 16
2 4 7 11 11 11 10 11 11 9 5 4 6 6 4 5 12 6 4 4 3 3 3 3 3 0 4 4 3 4 5 1 1 4 3 0 2 2 3 3 4 9 15 19 18 18 18 17 19 18 18 20 21 20
2 3 3 6 9 11 11 9 7 4 5 4 5 8 4 5 3 1 3 4 3 2 2 1 1 2 1 3 1 5 3 3 4 4 1 1 2 4 3 4 2 6 13 14 16 19 22 20 21 24 23 23 26 24
7 4 4 8 8 8 10 11 12 11 7 4 5 4 5 2 1 2 2 2 3 2 2 2 2 2 3 4 2 2 6 4 3 1 0 2 2 2 3 4 4 8 13 14 17 20 21 22 22 22 24 25 25 28
10 6 6 9 12 8 6 10 13 6 7 4 8 5 1 4 4 4 3 2 2 2 1 2 2 4 4 2 5 2 4 1 2 1 4 2 3 4 4 10 14 14 15 19 21 23 24 24 23 26 30 30 30 28
6 4 4 8 9 16 9 7 8 7 5 6 3 3 3 4 3 2 0 3 4 2 2 3 5 3 1 4 4 2 2 3 5 6 3 3 5 6 15 15 13 18 18 20 19 20 21 24 27 25 19 29 31 30
8 7 3 1 3 10 13 12 6 5 8 3 4 4 2 2 1 2 3 4 3 2 2 1 2 6 3 3 3 3 3 4 3 6 6 11 13 20 20 18 21 21 21 19 20 23 22 21 19 18 23 25 25 25
14 11 6 6 5 6 4 8 8 4 2 1 1 1 2 2 5 7 6 12 6 7 3 3 5 3 2 1 2 8 7 5 7 9 12 18 20 20 23 26 26 24 22 19 20 18 22 23 22 23 22 20 18 22
23 22 22 11 6 6 6 4 6 5 3 1 3 3 3 1 2 3 6 6 4 3 5 4 1 1 2 3 3 4 6 10 5 8 10 14 21 22 19 19 19 21 19 18 16 20 18 20 16 20 20 23 23 19
22 26 29 33 15 17 4 2 4 2 2 3 2 2 1 2 3 3 3 5 4 3 2 1 3 3 10 12 15 15 15 14 6 7 10 10 18 16 18 18 18 18 16 15 14 15 18 17 21 21 23 24 25 27
11 15 15 14 9 7 5 9 4 2 3 2 3 2 3 2 2 2 2 4 2 2 2 2 3 5 8 10 19 22 22 21 20 17 19 19 11 13 14 16 15 13 15 15 15 14 17 20 22 25 22 24 21 17
8 8 9 13 7 6 3 3 5 5 4 1 2 4 3 2 2 3 2 1 2 1 2 3 13 16 15 19 17 15 14 15 14 15 16 15 16 16 15 15 14 14 13 14 15 17 19 20 20 24 20 21 20 20
13 10 7 5 5 2 3 6 3 4 4 4 4 3 3 1 2 3 2 1 2 7 8 13 15 11 13 9 7 12 16 15 15 16 15 14 14 15 15 16 17 17 16 17 16 16 17 18 20 20 21 21 22 20
7 10 6 7 4 7 7 6 7 6 3 3 4 3 2 2 3 2 1 2 2 2 4 12 11 7 2 5 13 15 16 14 15 15 20 15 13 14 15 15 16 13 11 12 13 16 18 19 20 20 21 20 22 14
8 5 5 2 4 4 1 5 5 3 2 4 2 2 2 3 4 2 2 2 2 2 7 9 5 4 7 8 11 16 20 22 20 16 20 13 16 13 12 10 12 17 11 14 17 19 21 21 22 24 22 23 23 22
7 4 3 3 2 2 3 2 1 4 4 3 3 4 3 4 3 3 2 2 2 7 14 12 11 11 13 19 19 18 19 17 16 18 22 18 14 13 14 15 14 17 19 24 22 21 22 24 25 26 23 23 21 15
3 2 3 5 4 2 4 3 3 3 2 3 1 4 2 4 3 2 5 2 8 14 16 12 7 8 12 15 16 17 19 18 22 18 21 16 12 11 9 13 19 18 19 22 20 21 21 25 28 28 23 15 14 14
3 3 3 5 4 4 2 2 1 1 0 2 2 1 2 1 2 2 2 6 11 14 15 18 18 16 12 13 13 14 10 13 16 11 12 9 14 12 19 22 19 18 17 18 16 15 17 19 14 14 13 11 12 11
4 1 3 2 4 2 3 1 2 3 1 1 2 2 2 2 3 3 5 7 11 14 12 13 16 13 14 15 19 21 13 9 8 11 8 10 17 28 24 21 19 17 16 16 17 18 15 15 13 14 15 14 16 16
2 2 3 3 1 2 2 4 4 3 1 1 1 2 2 3 3 4 4 7 11 13 11 14 19 14 12 12 14 17 17 14 23 24 21 25 29 21 14 14 17 16 15 14 14 14 15 14 14 14 14 15 15 16
3 2 2 2 2 3 5 2 1 1 2 2 2 1 3 3 2 2 2 7 13 16 13 14 18 20 15 13 12 13 14 18 24 21 24 27 28 13 10 15 15 17 15 13 12 12 12 12 13 13 14 15 15 16
2 2 2 2 3 4 3 2 3 3 3 2 2 1 2 2 2 3 5 6 11 13 15 16 17 15 14 13 12 13 13 17 20 18 17 18 18 17 16 16 11 15 17 15 12 12 12 12 13 13 13 13 14 16
Wind_Direction
2 1 1 4 1 1 355 334 323 320 306 276 255 263 242 214 204 214 128 187 169 143 109 185 176 160 176 191 196 172 114 207 107 182 171 199 165 222 166 166 169 167 168 197 213 215 248 20 5 200 324 7 73 68
7 8 7 8 6 11 15 18 8 329 296 264 236 230 210 188 159 150 104 119 160 86 79 82 74 72 71 187 179 165 185 158 168 174 194 162 202 195 210 230 181 210 186 175 186 201 54 27 64 25 0 68 21 35
8 10 11 10 11 13 18 21 17 37 355 234 210 171 132 118 142 150 124 121 89 118 69 48 17 8 51 22 220 181 220 172 190 163 145 184 208 168 199 231 89 237 36 206 133 117 80 46 51 38 35 49 32 30
4 5 7 9 12 14 20 29 36 39 47 63 91 80 87 91 98 115 84 95 110 93 104 71 26 29 356 18 185 194 58 86 108 114 188 190 193 164 213 173 174 351 331 358 84 81 110 65 44 14 35 33 29 29
5 5 2 8 11 16 28 32 38 46 53 49 60 72 82 87 87 79 65 47 51 66 105 109 101 17 7 20 29 53 86 121 156 167 193 200 164 151 96 97 47 1 6 352 29 16 332 63 36 19 37 23 11 17
2 7 10 10 16 24 40 46 48 55 59 58 56 49 60 56 45 66 62 31 26 24 101 84 138 5 5 4 19 20 11 33 335 119 107 83 63 339 91 78 40 33 36 31 358 323 311 314 64 21 20 7 359 13
3 8 13 15 27 30 53 66 62 62 61 64 65 63 65 70 72 64 55 300 338 31 85 106 63 14 352 351 20 4 353 16 13 14 48 57 24 26 50 79 6 15 16 33 11 349 91 42 355 10 4 357 353 5
4 7 15 15 19 29 39 57 64 64 54 45 45 50 62 67 71 37 20 31 45 86 48 67 345 37 7 359 355 2 354 345 26 49 45 38 32 49 63 23 23 10 29 27 358 359 18 350 22 14 5 4 2 1
5 6 10 15 21 20 24 28 33 27 16 17 19 13 32 29 42 352 354 30 54 63 93 66 46 310 342 12 353 339 358 50 17 47 42 57 30 48 9 0 14 18 28 347 339 30 13 14 4 2 358 358 352 342
1 5 8 11 15 18 15 3 358 356 355 355 21 36 26 8 339 350 17 26 24 7 33 66 296 339 358 353 349 3 2 36 56 46 82 60 82 105 39 27 360 359 359 351 3 2 349 348 346 343 342 331 323 319
4 11 13 18 24 26 22 15 340 327 342 37 53 93 36 20 35 33 40 51 349 36 19 305 100 315 342 39 325 54 258 336 67 317 86 70 80 45 4 14 360 2 353 349 321 295 300 297 308 316 318 315 310 308
3 22 27 28 33 36 43 50 57 73 66 73 112 94 50 31 41 72 10 354 43 97 335 61 280 187 286 86 72 339 84 23 71 322 75 79 113 216 309 297 324 6 357 344 339 311 310 303 303 299 299 301 303 301
345 34 45 43 42 40 40 40 47 69 96 74 55 51 40 330 41 62 15 349 33 337 323 345 330 44 351 40 48 54 60 249 352 46 74 59 160 238 285 304 333 360 356 341 334 334 325 315 318 309 300 302 303 299
179 60 65 43 44 42 42 46 38 44 51 66 63 32 72 6 42 128 149 174 244 105 341 89 311 93 290 37 205 69 262 50 49 53 101 258 306 313 314 299 345 297 312 310 312 324 317 313 309 314 311 310 309 301
156 119 68 39 31 44 46 49 49 63 60 67 51 51 53 227 22 229 208 60 320 188 57 14 20 86 345 62 49 70 27 47 56 67 30 317 277 272 292 288 274 297 303 308 313 309 305 306 303 301 308 312 309 302
141 117 74 54 39 46 62 55 49 58 57 69 38 61 6 68 348 12 9 332 261 315 56 54 66 48 14 108 48 10 89 79 277 270 299 260 257 262 268 291 298 300 301 298 304 304 302 300 297 300 308 308 307 303
122 78 151 39 47 49 62 62 50 47 72 47 12 33 89 97 153 274 26 302 307 56 37 67 52 252 305 36 33 38 105 253 305 307 265 249 253 276 290 293 286 305 304 304 306 311 306 304 303 293 293 303 305 302
66 78 98 355 87 62 48 38 76 64 62 2 71 319 29 103 66 343 311 318 42 38 46 108 117 38 55 41 338 300 297 291 286 296 300 301 297 296 295 285 292 296 297 297 309 312 307 300 291 286 292 294 293 293
80 62 67 70 69 77 65 33 43 87 95 143 81 38 61 52 31 13 6 17 29 49 78 40 52 46 360 0 281 315 312 309 307 311 305 303 305 302 299 299 295 291 281 282 302 301 300 299 290 288 290 294 287 283
71 61 56 71 72 76 60 21 48 87 91 199 48 32 100 121 293 16 29 17 25 45 38 50 79 248 217 252 233 279 286 290 302 306 305 308 308 300 295 291 289 288 282 284 294 300 304 303 305 305 301 295 292 296
65 58 61 66 57 63 89 25 50 121 138 92 228 84 54 19 33 17 16 354 49 53 23 218 231 253 297 299 311 308 298 299 288 288 297 301 317 340 323 316 315 314 307 301 298 300 312 304 303 302 299 291 289 282
62 75 64 53 69 62 69 26 112 137 74 155 58 60 51 39 358 340 275 51 76 234 189 204 260 295 320 316 319 321 317 317 315 306 316 319 323 320 321 319 322 319 316 313 311 306 302 301 297 290 295 300 313 322
61 49 55 30 63 48 304 7 67 4 80 333 31 51 12 18 281 342 58 187 229 321 343 335 336 332 311 315 318 323 333 326 317 318 319 318 315 315 315 318 319 312 310 309 306 301 299 303 310 304 312 319 316 311
51 46 42 53 45 32 5 14 28 40 46 36 58 45 3 309 317 56 70 274 258 338 349 343 340 329 331 333 328 326 330 329 320 317 319 315 315 322 321 314 316 315 306 300 304 303 303 306 314 316 313 315 313 309
60 351 55 6 354 51 33 10 359 39 26 350 73 11 330 4 64 57 178 268 295 291 309 335 331 327 264 296 314 319 329 333 326 315 313 314 306 313 318 321 326 322 318 299 309 315 311 313 311 310 310 311 307 322
62 326 62 339 346 70 340 22 14 352 33 36 351 268 33 78 59 274 251 248 264 275 329 330 316 313 313 303 308 317 322 330 324 309 310 317 312 295 289 296 307 310 317 312 303 305 307 309 309 309 311 317 325 329
43 336 331 41 119 94 46 18 20 67 42 20 314 4 54 43 307 258 272 219 263 327 339 336 323 301 292 307 316 319 327 337 317 306 315 320 310 297 284 279 283 303 317 314 314 308 300 303 304 304 309 313 316 328
160 53 56 310 40 16 108 48 46 16 316 301 54 28 114 180 244 237 218 274 327 339 343 348 343 329 323 327 330 336 340 342 349 359 5 5 353 332 316 307 307 306 305 301 307 305 303 299 294 296 307 320 337 349
40 329 85 26 21 40 55 117 175 272 286 108 111 291 274 230 254 257 289 316 327 336 344 350 352 345 342 349 2 2 354 356 349 350 344 333 333 335 337 337 335 335 336 334 333 326 318 318 353 6 358 5 2 2
325 21 81 49 73 11 265 190 250 270 273 196 252 304 285 262 261 272 299 325 334 342 341 340 343 339 332 336 339 350 5 7 8 342 309 299 308 324 331 337 337 340 342 342 344 350 354 348 1 8 13 15 16 6
331 49 65 58 122 247 240 305 289 272 286 336 333 167 249 300 294 255 279 327 341 341 340 341 348 357 342 334 333 331 329 348 343 339 333 317 327 316 331 345 351 347 347 347 348 353 358 6 10 13 14 12 10 5
10 70 115 64 305 293 16 42 318 325 330 17 298 352 341 19 316 275 287 333 343 349 351 342 342 337 340 334 320 314 307 317 331 340 344 340 331 323 338 353 360 5 359 358 2 5 8 11 11 9 6 4 3 1
37 42 42 60 13 1 325 51 14 344 4 344 293 238 210 187 263 294 309 328 342 340 343 349 351 346 342 336 328 332 325 333 338 333 337 342 343 352 348 343 339 3 8 4 5 9 10 8 7 4 1 358 357 357